TimeIST,TemperatureF,Dew PointF,Humidity,Sea Level PressureIn,VisibilityMPH,Wind Direction,Wind SpeedMPH,Gust SpeedMPH,PrecipitationIn,Events,Conditions,WindDirDegrees,DateUTC
12:20 AM,59.0,53.6,82,30.04,5.0,South,5.8,-,N/A,,Mostly Cloudy,170,2013-02-27 22:20:00
12:50 AM,59.0,53.6,82,30.04,5.0,South,6.9,-,N/A,,Mostly Cloudy,170,2013-02-27 22:50:00
1:20 AM,57.2,53.6,88,30.04,4.3,SSE,9.2,-,N/A,,Mostly Cloudy,160,2013-02-27 23:20:00
1:50 AM,57.2,53.6,88,30.04,5.0,SSE,8.1,-,N/A,,Scattered Clouds,150,2013-02-27 23:50:00
2:00 AM,58,53,78,30.04,5,SSE,8.1,,,,,150,2013-02-28 00:00:00
2:20 AM,57.2,53.6,88,30.04,5.0,SSE,5.8,-,N/A,,Scattered Clouds,150,2013-02-28 00:20:00
2:50 AM,57.2,53.6,88,30.04,5.0,South,4.6,-,N/A,,Mostly Cloudy,170,2013-02-28 00:50:00
3:20 AM,57.2,51.8,82,30.04,5.0,SSE,5.8,-,N/A,,Mostly Cloudy,160,2013-02-28 01:20:00
3:50 AM,57.2,51.8,82,30.04,5.0,South,5.8,-,N/A,,Mostly Cloudy,170,2013-02-28 01:50:00
4:20 AM,57.2,51.8,82,30.04,5.0,SSE,6.9,-,N/A,,Mostly Cloudy,160,2013-02-28 02:20:00
4:50 AM,57.2,51.8,82,30.04,5.0,SSE,5.8,-,N/A,,Mostly Cloudy,160,2013-02-28 02:50:00
5:20 AM,57.2,51.8,82,30.04,5.0,SSE,6.9,-,N/A,,Mostly Cloudy,160,2013-02-28 03:20:00
5:50 AM,57.2,51.8,82,30.04,5.0,SSE,6.9,-,N/A,,Scattered Clouds,160,2013-02-28 03:50:00
6:20 AM,57.2,51.8,82,30.04,3.7,South,5.8,-,N/A,,Mostly Cloudy,170,2013-02-28 04:20:00
6:50 AM,57.2,51.8,82,30.04,3.7,South,4.6,-,N/A,,Mostly Cloudy,180,2013-02-28 04:50:00
7:20 AM,59.0,53.6,82,30.04,3.7,South,8.1,-,N/A,,Scattered Clouds,170,2013-02-28 05:20:00
7:50 AM,60.8,53.6,77,30.04,5.0,South,9.2,-,N/A,,Mostly Cloudy,190,2013-02-28 05:50:00
8:00 AM,60,54,74,30.04,5,South,8.1,,,,,190,2013-02-28 06:00:00
8:20 AM,60.8,55.4,82,30.04,5.0,SSW,9.2,-,N/A,,Scattered Clouds,200,2013-02-28 06:20:00
8:50 AM,62.6,55.4,77,30.06,5.0,SSW,9.2,-,N/A,,Scattered Clouds,200,2013-02-28 06:50:00
9:20 AM,64.4,55.4,73,30.06,6.2,SSW,8.1,-,N/A,,Scattered Clouds,200,2013-02-28 07:20:00
9:50 AM,64.4,55.4,73,30.06,6.2,SW,5.8,-,N/A,,Mostly Cloudy,220,2013-02-28 07:50:00
10:20 AM,64.4,53.6,68,30.06,6.2,WSW,5.8,-,N/A,,Scattered Clouds,240,2013-02-28 08:20:00
10:50 AM,66.2,51.8,60,30.06,6.2,WSW,8.1,-,N/A,,Scattered Clouds,250,2013-02-28 08:50:00
11:20 AM,66.2,51.8,60,30.06,6.2,West,12.7,-,N/A,,Scattered Clouds,260,2013-02-28 09:20:00
11:50 AM,66.2,51.8,60,30.06,6.2,West,13.8,-,N/A,,Scattered Clouds,260,2013-02-28 09:50:00
12:20 PM,66.2,51.8,60,30.04,6.2,West,12.7,-,N/A,,Mostly Cloudy,260,2013-02-28 10:20:00
12:50 PM,66.2,50.0,56,30.04,6.2,West,12.7,-,N/A,,Scattered Clouds,260,2013-02-28 10:50:00
1:20 PM,66.2,50.0,56,30.04,6.2,WSW,11.5,-,N/A,,Mostly Cloudy,250,2013-02-28 11:20:00
1:50 PM,66.2,50.0,56,30.04,6.2,West,15.0,-,N/A,,Scattered Clouds,270,2013-02-28 11:50:00
2:00 PM,66,52,51,30.04,6,West,11.5,,,,,260,2013-02-28 12:00:00
2:20 PM,66.2,50.0,56,30.04,6.2,West,12.7,24.2,N/A,,Mostly Cloudy,260,2013-02-28 12:20:00
2:50 PM,64.4,51.8,64,30.04,6.2,West,16.1,-,N/A,,Mostly Cloudy,280,2013-02-28 12:50:00
3:20 PM,66.2,51.8,60,30.04,6.2,West,16.1,-,N/A,,Mostly Cloudy,280,2013-02-28 13:20:00
3:50 PM,64.4,50.0,59,30.04,6.2,WNW,15.0,-,N/A,,Scattered Clouds,290,2013-02-28 13:50:00
4:20 PM,64.4,48.2,56,30.04,6.2,West,12.7,-,N/A,,Scattered Clouds,270,2013-02-28 14:20:00
4:50 PM,62.6,46.4,55,30.04,6.2,West,13.8,-,N/A,,Scattered Clouds,270,2013-02-28 14:50:00
5:20 PM,62.6,46.4,55,30.04,6.2,West,13.8,-,N/A,,Scattered Clouds,270,2013-02-28 15:20:00
5:50 PM,62.6,48.2,59,30.04,6.2,West,13.8,-,N/A,,Scattered Clouds,280,2013-02-28 15:50:00
6:20 PM,60.8,48.2,63,30.04,6.2,WNW,9.2,-,N/A,,Scattered Clouds,290,2013-02-28 16:20:00
6:50 PM,60.8,48.2,63,30.04,6.2,WNW,9.2,-,N/A,,Partly Cloudy,290,2013-02-28 16:50:00
7:20 PM,59.0,46.4,63,30.04,6.2,West,6.9,-,N/A,,Partly Cloudy,260,2013-02-28 17:20:00
7:50 PM,59.0,46.4,63,30.04,6.2,West,6.9,-,N/A,,Partly Cloudy,260,2013-02-28 17:50:00
8:00 PM,60,46,49,30.04,6,West,6.9,,,,,260,2013-02-28 18:00:00
8:20 PM,59.0,46.4,63,30.04,6.2,WSW,4.6,-,N/A,,Partly Cloudy,240,2013-02-28 18:20:00
8:50 PM,59.0,48.2,67,30.04,6.2,WSW,5.8,-,N/A,,Partly Cloudy,240,2013-02-28 18:50:00
9:20 PM,59.0,48.2,67,30.04,6.2,SW,4.6,-,N/A,,Partly Cloudy,230,2013-02-28 19:20:00
9:50 PM,59.0,48.2,67,30.06,6.2,SW,4.6,-,N/A,,Partly Cloudy,230,2013-02-28 19:50:00
10:20 PM,59.0,48.2,67,30.06,6.2,WSW,4.6,-,N/A,,Scattered Clouds,240,2013-02-28 20:20:00
10:50 PM,60.8,50.0,68,30.06,6.2,WNW,5.8,-,N/A,,Partly Cloudy,290,2013-02-28 20:50:00
11:20 PM,59.0,48.2,67,30.06,6.2,West,5.8,-,N/A,,Partly Cloudy,270,2013-02-28 21:20:00
11:50 PM,57.2,48.2,72,30.04,6.2,South,4.6,-,N/A,,Scattered Clouds,190,2013-02-28 21:50:00